Time,TemperatureF,DewpointF,PressureIn,WindDirection,WindDirectionDegrees,WindSpeedMPH,WindSpeedGustMPH,Humidity,HourlyPrecipIn,Conditions,Clouds,dailyrainin,SoftwareType,DateUTC
2013-08-16 00:05:00,83.8,83.8,29.95,East,86,0.0,0.0,100,0.00,,,0.00,Wunderground v.1.15,2013-08-16 04:05:00,
2013-08-16 00:10:00,83.8,83.8,29.95,East,88,0.0,0.0,100,0.00,,,0.00,Wunderground v.1.15,2013-08-16 04:10:00,
2013-08-16 00:15:00,83.8,83.8,29.94,ESE,114,0.0,0.0,100,0.00,,,0.00,Wunderground v.1.15,2013-08-16 04:15:00,
2013-08-16 00:20:00,83.8,83.8,29.94,East,92,0.0,0.0,100,0.00,,,0.00,Wunderground v.1.15,2013-08-16 04:20:00,
2013-08-16 00:30:00,83.8,83.8,29.94,East,93,0.0,0.0,100,0.00,,,0.00,Wunderground v.1.15,2013-08-16 04:30:00,
2013-08-16 00:35:00,83.8,83.8,29.94,East,93,0.0,0.0,100,0.00,,,0.00,Wunderground v.1.15,2013-08-16 04:35:00,
2013-08-16 00:45:00,83.6,83.6,29.94,ESE,114,1.0,1.0,100,0.00,,,0.00,Wunderground v.1.15,2013-08-16 04:45:00,
2013-08-16 00:50:00,83.8,83.8,29.94,ESE,110,0.0,0.0,100,0.00,,,0.00,Wunderground v.1.15,2013-08-16 04:50:00,
2013-08-16 01:00:00,83.6,83.6,29.93,East,99,0.0,1.0,100,0.00,,,0.00,Wunderground v.1.15,2013-08-16 05:00:00,
2013-08-16 01:05:00,83.4,83.4,29.93,ENE,65,2.0,5.0,100,0.00,,,0.00,Wunderground v.1.15,2013-08-16 05:05:00,
2013-08-16 01:15:00,83.6,83.6,29.92,NE,55,3.0,6.0,100,0.00,,,0.00,Wunderground v.1.15,2013-08-16 05:15:00,
2013-08-16 01:20:00,83.6,83.6,29.92,NE,45,3.0,6.0,100,0.00,,,0.00,Wunderground v.1.15,2013-08-16 05:20:00,
2013-08-16 01:30:00,83.8,83.8,29.91,ENE,73,6.0,6.0,100,0.00,,,0.00,Wunderground v.1.15,2013-08-16 05:30:00,
2013-08-16 01:35:00,83.8,83.8,29.91,East,83,5.0,6.0,100,0.00,,,0.00,Wunderground v.1.15,2013-08-16 05:35:00,
2013-08-16 01:45:00,83.8,83.8,29.91,ENE,71,4.0,4.0,100,0.00,,,0.00,Wunderground v.1.15,2013-08-16 05:45:00,
2013-08-16 02:00:00,83.6,83.6,29.91,ENE,66,4.0,8.0,100,0.00,,,0.00,Wunderground v.1.15,2013-08-16 06:00:00,
2013-08-16 02:05:00,83.6,83.6,29.91,ENE,61,4.0,8.0,100,0.00,,,0.00,Wunderground v.1.15,2013-08-16 06:05:00,
2013-08-16 02:15:00,83.8,83.8,29.91,ENE,71,3.0,6.0,100,0.00,,,0.00,Wunderground v.1.15,2013-08-16 06:15:00,
2013-08-16 02:20:00,83.6,83.6,29.91,NE,54,4.0,5.0,100,0.00,,,0.00,Wunderground v.1.15,2013-08-16 06:20:00,
2013-08-16 02:30:00,83.6,83.6,29.91,East,97,3.0,3.0,100,0.00,,,0.00,Wunderground v.1.15,2013-08-16 06:30:00,
2013-08-16 02:35:00,83.6,83.6,29.91,ENE,61,2.0,3.0,100,0.00,,,0.00,Wunderground v.1.15,2013-08-16 06:35:00,
2013-08-16 02:45:00,83.8,83.8,29.90,ENE,65,3.0,7.0,100,0.00,,,0.00,Wunderground v.1.15,2013-08-16 06:45:00,
2013-08-16 02:50:00,83.8,83.8,29.90,ENE,71,4.0,8.0,100,0.00,,,0.00,Wunderground v.1.15,2013-08-16 06:50:00,
2013-08-16 03:00:00,83.8,83.8,29.90,ENE,73,2.0,2.0,100,0.00,,,0.00,Wunderground v.1.15,2013-08-16 07:00:00,
2013-08-16 03:10:00,83.6,83.6,29.90,East,88,2.0,2.0,100,0.00,,,0.00,Wunderground v.1.15,2013-08-16 07:10:00,
2013-08-16 03:15:00,83.6,83.6,29.90,ESE,110,1.0,2.0,100,0.00,,,0.00,Wunderground v.1.15,2013-08-16 07:15:00,
2013-08-16 03:25:00,83.6,83.6,29.90,East,99,1.0,1.0,100,0.00,,,0.00,Wunderground v.1.15,2013-08-16 07:25:00,
2013-08-16 03:30:00,83.6,83.6,29.90,ESE,113,1.0,5.0,100,0.00,,,0.00,Wunderground v.1.15,2013-08-16 07:30:00,
2013-08-16 03:40:00,83.6,83.6,29.90,ESE,106,2.0,2.0,100,0.00,,,0.00,Wunderground v.1.15,2013-08-16 07:40:00,
2013-08-16 03:45:00,83.6,83.6,29.90,ESE,121,2.0,2.0,100,0.00,,,0.00,Wunderground v.1.15,2013-08-16 07:45:00,
2013-08-16 03:55:00,83.6,83.6,29.90,East,83,3.0,3.0,100,0.00,,,0.00,Wunderground v.1.15,2013-08-16 07:55:00,
2013-08-16 04:05:00,83.6,83.6,29.91,East,95,2.0,2.0,100,0.00,,,0.00,Wunderground v.1.15,2013-08-16 08:05:00,
2013-08-16 04:10:00,83.4,83.4,29.91,ESE,109,2.0,5.0,100,0.00,,,0.00,Wunderground v.1.15,2013-08-16 08:10:00,
2013-08-16 04:15:00,83.4,83.4,29.91,ESE,116,3.0,5.0,100,0.00,,,0.00,Wunderground v.1.15,2013-08-16 08:15:00,
2013-08-16 04:25:00,83.4,83.4,29.91,ESE,123,1.0,2.0,100,0.00,,,0.00,Wunderground v.1.15,2013-08-16 08:25:00,
2013-08-16 04:30:00,83.6,83.6,29.91,ESE,110,1.0,2.0,100,0.00,,,0.00,Wunderground v.1.15,2013-08-16 08:30:00,
2013-08-16 04:40:00,83.6,83.6,29.91,ESE,107,1.0,1.0,100,0.00,,,0.00,Wunderground v.1.15,2013-08-16 08:40:00,
2013-08-16 04:45:00,83.4,83.4,29.91,ESE,109,0.0,1.0,100,0.00,,,0.00,Wunderground v.1.15,2013-08-16 08:45:00,
2013-08-16 04:55:00,83.6,83.6,29.91,ESE,103,1.0,8.0,100,0.00,,,0.00,Wunderground v.1.15,2013-08-16 08:55:00,
2013-08-16 05:00:00,83.4,83.4,29.91,ESE,109,2.0,2.0,100,0.00,,,0.00,Wunderground v.1.15,2013-08-16 09:00:00,
2013-08-16 05:10:00,83.4,83.4,29.91,East,96,1.0,1.0,100,0.00,,,0.00,Wunderground v.1.15,2013-08-16 09:10:00,
2013-08-16 05:15:00,83.6,83.6,29.91,ESE,114,1.0,1.0,100,0.00,,,0.00,Wunderground v.1.15,2013-08-16 09:15:00,
2013-08-16 05:25:00,83.4,83.4,29.91,East,93,1.0,1.0,100,0.00,,,0.00,Wunderground v.1.15,2013-08-16 09:25:00,
2013-08-16 05:30:00,83.4,83.4,29.91,ESE,109,1.0,1.0,100,0.00,,,0.00,Wunderground v.1.15,2013-08-16 09:30:00,
2013-08-16 05:40:00,83.4,83.4,29.91,ESE,110,1.0,1.0,100,0.00,,,0.00,Wunderground v.1.15,2013-08-16 09:40:00,
2013-08-16 05:50:00,83.4,83.4,29.90,East,80,2.0,3.0,100,0.00,,,0.00,Wunderground v.1.15,2013-08-16 09:50:00,
2013-08-16 05:55:00,83.4,83.4,29.90,ESE,106,2.0,3.0,100,0.00,,,0.00,Wunderground v.1.15,2013-08-16 09:55:00,
2013-08-16 06:05:00,83.4,83.4,29.90,ESE,116,2.0,6.0,100,0.00,,,0.00,Wunderground v.1.15,2013-08-16 10:05:00,
2013-08-16 06:10:00,83.4,83.4,29.90,East,97,3.0,3.0,100,0.00,,,0.00,Wunderground v.1.15,2013-08-16 10:10:00,
2013-08-16 06:20:00,83.4,83.4,29.90,East,92,2.0,2.0,100,0.00,,,0.00,Wunderground v.1.15,2013-08-16 10:20:00,
2013-08-16 06:25:00,83.4,83.4,29.90,NE,56,2.0,7.0,100,0.00,,,0.00,Wunderground v.1.15,2013-08-16 10:25:00,
2013-08-16 06:30:00,83.4,83.4,29.90,East,96,3.0,3.0,100,0.00,,,0.00,Wunderground v.1.15,2013-08-16 10:30:00,
2013-08-16 06:40:00,83.4,83.4,29.90,ESE,113,2.0,4.0,100,0.00,,,0.00,Wunderground v.1.15,2013-08-16 10:40:00,
2013-08-16 06:50:00,83.6,83.6,29.91,ENE,69,3.0,6.0,100,0.00,,,0.00,Wunderground v.1.15,2013-08-16 10:50:00,
2013-08-16 07:00:00,83.6,83.6,29.91,East,85,2.0,2.0,100,0.00,,,0.00,Wunderground v.1.15,2013-08-16 11:00:00,
2013-08-16 07:05:00,83.6,83.6,29.91,East,97,2.0,2.0,100,0.00,,,0.00,Wunderground v.1.15,2013-08-16 11:05:00,
2013-08-16 07:15:00,83.6,83.6,29.92,ENE,78,2.0,4.0,100,0.00,,,0.00,Wunderground v.1.15,2013-08-16 11:15:00,
2013-08-16 07:20:00,83.6,83.6,29.92,ENE,76,2.0,2.0,100,0.00,,,0.00,Wunderground v.1.15,2013-08-16 11:20:00,
2013-08-16 07:30:00,83.6,83.6,29.92,ENE,62,3.0,7.0,100,0.00,,,0.00,Wunderground v.1.15,2013-08-16 11:30:00,
2013-08-16 07:35:00,83.6,83.6,29.92,ENE,76,2.0,7.0,100,0.00,,,0.00,Wunderground v.1.15,2013-08-16 11:35:00,
2013-08-16 07:45:00,84.0,84.0,29.92,East,80,2.0,4.0,100,0.00,,,0.00,Wunderground v.1.15,2013-08-16 11:45:00,
2013-08-16 07:55:00,84.0,84.0,29.92,ENE,68,1.0,2.0,100,0.00,,,0.00,Wunderground v.1.15,2013-08-16 11:55:00,
2013-08-16 08:00:00,84.1,84.1,29.92,ENE,68,1.0,2.0,100,0.00,,,0.00,Wunderground v.1.15,2013-08-16 12:00:00,
2013-08-16 08:10:00,84.0,84.0,29.92,ESE,104,1.0,1.0,100,0.00,,,0.00,Wunderground v.1.15,2013-08-16 12:10:00,
2013-08-16 08:15:00,84.1,84.1,29.93,ENE,76,2.0,5.0,100,0.00,,,0.00,Wunderground v.1.15,2013-08-16 12:15:00,
2013-08-16 08:25:00,84.3,84.3,29.93,East,90,2.0,7.0,100,0.00,,,0.00,Wunderground v.1.15,2013-08-16 12:25:00,
2013-08-16 08:35:00,84.5,84.5,29.93,ENE,61,3.0,5.0,100,0.00,,,0.00,Wunderground v.1.15,2013-08-16 12:35:00,
2013-08-16 08:40:00,84.7,84.7,29.93,ENE,59,4.0,8.0,100,0.00,,,0.00,Wunderground v.1.15,2013-08-16 12:40:00,
2013-08-16 08:50:00,84.7,84.7,29.93,East,100,3.0,3.0,100,0.00,,,0.00,Wunderground v.1.15,2013-08-16 12:50:00,
2013-08-16 09:00:00,84.5,84.5,29.93,NE,47,5.0,5.0,100,0.00,,,0.00,Wunderground v.1.15,2013-08-16 13:00:00,
2013-08-16 09:05:00,84.5,84.5,29.93,ENE,73,6.0,7.0,100,0.00,,,0.00,Wunderground v.1.15,2013-08-16 13:05:00,
2013-08-16 09:10:00,84.9,84.9,29.93,ENE,58,4.0,5.0,100,0.00,,,0.00,Wunderground v.1.15,2013-08-16 13:10:00,
2013-08-16 09:20:00,85.3,85.3,29.93,East,86,3.0,5.0,100,0.00,,,0.00,Wunderground v.1.15,2013-08-16 13:20:00,
2013-08-16 09:30:00,85.3,85.3,29.93,East,79,2.0,5.0,100,0.00,,,0.00,Wunderground v.1.15,2013-08-16 13:30:00,
2013-08-16 09:35:00,85.9,85.9,29.93,East,89,2.0,5.0,100,0.00,,,0.00,Wunderground v.1.15,2013-08-16 13:35:00,
2013-08-16 09:45:00,85.3,85.3,29.93,ENE,66,3.0,6.0,100,0.00,,,0.00,Wunderground v.1.15,2013-08-16 13:45:00,
2013-08-16 09:50:00,85.1,85.1,29.93,East,85,5.0,5.0,100,0.00,,,0.00,Wunderground v.1.15,2013-08-16 13:50:00,
2013-08-16 10:00:00,84.9,84.9,29.93,East,95,5.0,5.0,100,0.00,,,0.00,Wunderground v.1.15,2013-08-16 14:00:00,
2013-08-16 10:10:00,84.9,84.9,29.93,ENE,71,5.0,7.0,100,0.00,,,0.00,Wunderground v.1.15,2013-08-16 14:10:00,
2013-08-16 10:15:00,85.1,85.1,29.94,ENE,73,4.0,8.0,100,0.00,,,0.00,Wunderground v.1.15,2013-08-16 14:15:00,
2013-08-16 10:25:00,85.7,85.7,29.94,East,79,6.0,6.0,100,0.00,,,0.00,Wunderground v.1.15,2013-08-16 14:25:00,
2013-08-16 10:35:00,86.3,86.3,29.94,ENE,58,5.0,6.0,100,0.00,,,0.00,Wunderground v.1.15,2013-08-16 14:35:00,
2013-08-16 10:40:00,86.3,86.3,29.94,ENE,66,5.0,5.0,100,0.00,,,0.00,Wunderground v.1.15,2013-08-16 14:40:00,
2013-08-16 10:50:00,86.5,86.5,29.94,ENE,66,4.0,4.0,100,0.00,,,0.00,Wunderground v.1.15,2013-08-16 14:50:00,
2013-08-16 10:55:00,87.0,87.0,29.94,ESE,106,5.0,5.0,100,0.00,,,0.00,Wunderground v.1.15,2013-08-16 14:55:00,
2013-08-16 11:05:00,86.7,86.7,29.94,NNE,32,4.0,7.0,100,0.00,,,0.00,Wunderground v.1.15,2013-08-16 15:05:00,
2013-08-16 11:15:00,87.0,87.0,29.95,ENE,59,4.0,5.0,100,0.00,,,0.00,Wunderground v.1.15,2013-08-16 15:15:00,
2013-08-16 11:20:00,86.5,86.5,29.95,ENE,72,5.0,10.0,100,0.00,,,0.00,Wunderground v.1.15,2013-08-16 15:20:00,
2013-08-16 11:30:00,85.9,85.9,29.95,East,85,5.0,5.0,100,0.00,,,0.00,Wunderground v.1.15,2013-08-16 15:30:00,
2013-08-16 11:35:00,85.9,85.9,29.95,East,82,4.0,5.0,100,0.00,,,0.00,Wunderground v.1.15,2013-08-16 15:35:00,
2013-08-16 11:45:00,86.1,86.1,29.94,East,85,4.0,7.0,100,0.00,,,0.00,Wunderground v.1.15,2013-08-16 15:45:00,
2013-08-16 11:50:00,86.3,86.3,29.94,East,83,5.0,6.0,100,0.00,,,0.00,Wunderground v.1.15,2013-08-16 15:50:00,
2013-08-16 12:00:00,84.9,84.9,29.95,East,95,8.0,12.0,100,0.00,,,0.00,Wunderground v.1.15,2013-08-16 16:00:00,
2013-08-16 12:10:00,83.8,83.8,29.95,ESE,116,9.0,9.0,100,0.00,,,0.00,Wunderground v.1.15,2013-08-16 16:10:00,
2013-08-16 12:15:00,84.0,84.0,29.94,ESE,117,8.0,9.0,100,0.00,,,0.00,Wunderground v.1.15,2013-08-16 16:15:00,
2013-08-16 12:25:00,84.5,84.5,29.94,SE,126,5.0,7.0,100,0.00,,,0.00,Wunderground v.1.15,2013-08-16 16:25:00,
2013-08-16 12:35:00,85.3,85.3,29.94,ESE,117,2.0,3.0,100,0.00,,,0.00,Wunderground v.1.15,2013-08-16 16:35:00,
2013-08-16 12:45:00,85.1,85.1,29.93,ESE,113,2.0,2.0,100,0.00,,,0.00,Wunderground v.1.15,2013-08-16 16:45:00,
2013-08-16 12:55:00,85.5,85.5,29.93,East,89,1.0,2.0,100,0.00,,,0.00,Wunderground v.1.15,2013-08-16 16:55:00,
2013-08-16 13:05:00,85.1,85.1,29.93,ESE,112,4.0,4.0,100,0.00,,,0.00,Wunderground v.1.15,2013-08-16 17:05:00,
2013-08-16 13:15:00,84.5,84.5,29.93,East,86,4.0,7.0,100,0.13,,,0.03,Wunderground v.1.15,2013-08-16 17:15:00,
2013-08-16 13:25:00,84.5,84.5,29.93,East,100,3.0,4.0,100,0.04,,,0.03,Wunderground v.1.15,2013-08-16 17:25:00,
2013-08-16 13:35:00,84.9,84.9,29.92,East,93,4.0,7.0,100,0.00,,,0.03,Wunderground v.1.15,2013-08-16 17:35:00,
2013-08-16 13:45:00,85.9,85.9,29.92,East,88,5.0,6.0,100,0.00,,,0.03,Wunderground v.1.15,2013-08-16 17:45:00,
2013-08-16 13:50:00,86.3,86.3,29.92,ENE,61,5.0,8.0,100,0.00,,,0.03,Wunderground v.1.15,2013-08-16 17:50:00,
2013-08-16 13:55:00,86.5,86.5,29.92,East,79,5.0,10.0,100,0.00,,,0.03,Wunderground v.1.15,2013-08-16 17:55:00,
2013-08-16 14:05:00,87.0,87.0,29.92,East,89,5.0,6.0,100,0.00,,,0.03,Wunderground v.1.15,2013-08-16 18:05:00,
2013-08-16 14:10:00,87.0,87.0,29.92,ESE,104,6.0,7.0,100,0.00,,,0.03,Wunderground v.1.15,2013-08-16 18:10:00,
2013-08-16 14:20:00,87.2,87.2,29.91,ENE,76,5.0,5.0,100,0.00,,,0.03,Wunderground v.1.15,2013-08-16 18:20:00,
2013-08-16 14:25:00,87.0,87.0,29.91,East,93,4.0,7.0,100,0.00,,,0.03,Wunderground v.1.15,2013-08-16 18:25:00,
2013-08-16 14:35:00,87.4,87.4,29.91,East,90,5.0,5.0,100,0.00,,,0.03,Wunderground v.1.15,2013-08-16 18:35:00,
2013-08-16 14:45:00,87.2,87.2,29.90,ENE,61,5.0,8.0,100,0.00,,,0.03,Wunderground v.1.15,2013-08-16 18:45:00,
2013-08-16 14:55:00,87.4,87.4,29.90,East,85,6.0,12.0,100,0.00,,,0.03,Wunderground v.1.15,2013-08-16 18:55:00,
2013-08-16 15:00:00,87.4,87.4,29.90,ESE,110,7.0,8.0,100,0.00,,,0.03,Wunderground v.1.15,2013-08-16 19:00:00,
2013-08-16 15:10:00,87.2,87.2,29.90,ESE,120,6.0,6.0,100,0.00,,,0.03,Wunderground v.1.15,2013-08-16 19:10:00,
2013-08-16 15:20:00,87.2,87.2,29.89,East,99,7.0,7.0,100,0.00,,,0.03,Wunderground v.1.15,2013-08-16 19:20:00,
2013-08-16 15:30:00,87.2,87.2,29.89,ENE,68,7.0,8.0,100,0.00,,,0.03,Wunderground v.1.15,2013-08-16 19:30:00,
2013-08-16 15:35:00,87.2,87.2,29.89,East,85,6.0,8.0,100,0.00,,,0.03,Wunderground v.1.15,2013-08-16 19:35:00,
2013-08-16 15:45:00,87.4,87.4,29.89,East,85,7.0,8.0,100,0.00,,,0.03,Wunderground v.1.15,2013-08-16 19:45:00,
2013-08-16 15:50:00,87.4,87.4,29.89,ENE,59,6.0,11.0,100,0.00,,,0.03,Wunderground v.1.15,2013-08-16 19:50:00,
2013-08-16 16:00:00,86.5,86.5,29.88,ESE,119,7.0,12.0,100,0.00,,,0.03,Wunderground v.1.15,2013-08-16 20:00:00,
2013-08-16 16:05:00,86.3,86.3,29.88,ESE,106,7.0,12.0,100,0.00,,,0.03,Wunderground v.1.15,2013-08-16 20:05:00,
2013-08-16 16:15:00,87.2,87.2,29.88,East,89,6.0,6.0,100,0.00,,,0.03,Wunderground v.1.15,2013-08-16 20:15:00,
2013-08-16 16:20:00,87.0,87.0,29.88,East,95,6.0,6.0,100,0.00,,,0.03,Wunderground v.1.15,2013-08-16 20:20:00,
2013-08-16 16:30:00,87.0,87.0,29.88,East,97,5.0,9.0,100,0.00,,,0.03,Wunderground v.1.15,2013-08-16 20:30:00,
2013-08-16 16:40:00,86.7,86.7,29.88,ESE,121,6.0,6.0,100,0.00,,,0.03,Wunderground v.1.15,2013-08-16 20:40:00,
2013-08-16 16:45:00,86.7,86.7,29.88,ENE,58,5.0,10.0,100,0.00,,,0.03,Wunderground v.1.15,2013-08-16 20:45:00,
2013-08-16 16:55:00,87.0,87.0,29.88,ENE,75,5.0,6.0,100,0.00,,,0.03,Wunderground v.1.15,2013-08-16 20:55:00,
2013-08-16 17:00:00,87.2,87.2,29.89,East,89,6.0,6.0,100,0.00,,,0.03,Wunderground v.1.15,2013-08-16 21:00:00,
2013-08-16 17:10:00,87.0,87.0,29.89,East,92,7.0,10.0,100,0.00,,,0.03,Wunderground v.1.15,2013-08-16 21:10:00,
2013-08-16 17:20:00,86.5,86.5,29.88,ESE,113,8.0,8.0,100,0.00,,,0.03,Wunderground v.1.15,2013-08-16 21:20:00,
2013-08-16 17:30:00,87.2,87.2,29.89,East,95,5.0,6.0,100,0.00,,,0.03,Wunderground v.1.15,2013-08-16 21:30:00,
2013-08-16 17:35:00,86.3,86.3,29.89,ESE,103,6.0,7.0,100,0.00,,,0.03,Wunderground v.1.15,2013-08-16 21:35:00,
2013-08-16 17:45:00,86.3,86.3,29.89,ESE,107,7.0,7.0,100,0.00,,,0.03,Wunderground v.1.15,2013-08-16 21:45:00,
2013-08-16 17:55:00,86.5,86.5,29.89,ENE,69,6.0,8.0,100,0.00,,,0.03,Wunderground v.1.15,2013-08-16 21:55:00,
2013-08-16 18:00:00,86.3,86.3,29.89,ESE,113,6.0,6.0,100,0.00,,,0.03,Wunderground v.1.15,2013-08-16 22:00:00,
2013-08-16 18:10:00,86.1,86.1,29.89,ENE,76,7.0,7.0,100,0.00,,,0.03,Wunderground v.1.15,2013-08-16 22:10:00,
2013-08-16 18:15:00,86.1,86.1,29.89,ESE,120,6.0,8.0,100,0.00,,,0.03,Wunderground v.1.15,2013-08-16 22:15:00,
2013-08-16 18:25:00,86.3,86.3,29.89,East,90,4.0,7.0,100,0.00,,,0.03,Wunderground v.1.15,2013-08-16 22:25:00,
2013-08-16 18:35:00,85.9,85.9,29.89,East,90,5.0,5.0,100,0.00,,,0.03,Wunderground v.1.15,2013-08-16 22:35:00,
2013-08-16 18:40:00,85.9,85.9,29.89,ESE,107,5.0,5.0,100,0.00,,,0.03,Wunderground v.1.15,2013-08-16 22:40:00,
2013-08-16 18:50:00,85.7,85.7,29.89,East,99,6.0,8.0,100,0.00,,,0.03,Wunderground v.1.15,2013-08-16 22:50:00,
2013-08-16 19:05:00,85.5,85.5,29.90,East,97,4.0,5.0,100,0.00,,,0.03,Wunderground v.1.15,2013-08-16 23:05:00,
2013-08-16 19:15:00,85.3,85.3,29.89,ESE,107,4.0,4.0,100,0.00,,,0.03,Wunderground v.1.15,2013-08-16 23:15:00,
2013-08-16 19:25:00,85.1,85.1,29.89,East,100,4.0,6.0,100,0.00,,,0.03,Wunderground v.1.15,2013-08-16 23:25:00,
2013-08-16 19:35:00,84.9,84.9,29.90,ESE,114,5.0,5.0,100,0.00,,,0.03,Wunderground v.1.15,2013-08-16 23:35:00,
2013-08-16 19:40:00,84.9,84.9,29.90,East,80,4.0,7.0,100,0.00,,,0.03,Wunderground v.1.15,2013-08-16 23:40:00,
2013-08-16 19:45:00,84.9,84.9,29.91,ESE,121,5.0,12.0,100,0.00,,,0.03,Wunderground v.1.15,2013-08-16 23:45:00,
2013-08-16 19:55:00,84.9,84.9,29.91,SE,126,4.0,6.0,100,0.00,,,0.03,Wunderground v.1.15,2013-08-16 23:55:00,
2013-08-16 20:00:00,84.7,84.7,29.91,ESE,121,5.0,5.0,100,0.00,,,0.03,Wunderground v.1.15,2013-08-17 00:00:00,
2013-08-16 20:10:00,84.7,84.7,29.91,East,99,5.0,7.0,100,0.00,,,0.03,Wunderground v.1.15,2013-08-17 00:10:00,
2013-08-16 20:15:00,84.7,84.7,29.91,SE,138,5.0,7.0,100,0.00,,,0.03,Wunderground v.1.15,2013-08-17 00:15:00,
2013-08-16 20:25:00,84.5,84.5,29.91,ENE,72,5.0,9.0,100,0.00,,,0.03,Wunderground v.1.15,2013-08-17 00:25:00,
2013-08-16 20:30:00,84.7,84.7,29.92,East,96,6.0,6.0,100,0.00,,,0.03,Wunderground v.1.15,2013-08-17 00:30:00,
2013-08-16 20:40:00,84.7,84.7,29.92,ENE,64,5.0,5.0,100,0.00,,,0.03,Wunderground v.1.15,2013-08-17 00:40:00,
2013-08-16 20:45:00,84.5,84.5,29.92,ESE,109,5.0,5.0,100,0.00,,,0.03,Wunderground v.1.15,2013-08-17 00:45:00,
2013-08-16 20:55:00,84.5,84.5,29.92,ESE,113,5.0,6.0,100,0.00,,,0.03,Wunderground v.1.15,2013-08-17 00:55:00,
2013-08-16 21:05:00,84.5,84.5,29.92,East,95,5.0,5.0,100,0.00,,,0.03,Wunderground v.1.15,2013-08-17 01:05:00,
2013-08-16 21:15:00,84.7,84.7,29.93,ESE,110,4.0,6.0,100,0.00,,,0.03,Wunderground v.1.15,2013-08-17 01:15:00,
2013-08-16 21:25:00,84.5,84.5,29.93,ESE,120,5.0,7.0,100,0.00,,,0.03,Wunderground v.1.15,2013-08-17 01:25:00,
2013-08-16 21:30:00,84.3,84.3,29.94,East,97,5.0,6.0,100,0.00,,,0.03,Wunderground v.1.15,2013-08-17 01:30:00,
2013-08-16 21:40:00,84.7,84.7,29.94,East,90,3.0,6.0,100,0.00,,,0.03,Wunderground v.1.15,2013-08-17 01:40:00,
2013-08-16 21:50:00,84.5,84.5,29.94,East,100,4.0,4.0,100,0.00,,,0.03,Wunderground v.1.15,2013-08-17 01:50:00,
2013-08-16 21:55:00,84.5,84.5,29.94,ESE,121,3.0,6.0,100,0.00,,,0.03,Wunderground v.1.15,2013-08-17 01:55:00,
2013-08-16 22:05:00,84.5,84.5,29.94,ESE,109,3.0,7.0,100,0.00,,,0.03,Wunderground v.1.15,2013-08-17 02:05:00,
2013-08-16 22:15:00,84.5,84.5,29.95,ESE,103,3.0,6.0,100,0.00,,,0.03,Wunderground v.1.15,2013-08-17 02:15:00,
2013-08-16 22:20:00,84.7,84.7,29.95,East,92,4.0,4.0,100,0.00,,,0.03,Wunderground v.1.15,2013-08-17 02:20:00,
2013-08-16 22:30:00,84.5,84.5,29.94,East,95,3.0,3.0,100,0.00,,,0.03,Wunderground v.1.15,2013-08-17 02:30:00,
2013-08-16 22:35:00,84.5,84.5,29.94,East,85,5.0,7.0,100,0.00,,,0.03,Wunderground v.1.15,2013-08-17 02:35:00,
2013-08-16 22:45:00,84.5,84.5,29.95,ESE,109,5.0,9.0,100,0.00,,,0.03,Wunderground v.1.15,2013-08-17 02:45:00,
2013-08-16 22:50:00,84.5,84.5,29.95,SE,137,5.0,5.0,100,0.00,,,0.03,Wunderground v.1.15,2013-08-17 02:50:00,
2013-08-16 23:00:00,84.5,84.5,29.95,East,90,4.0,4.0,100,0.00,,,0.03,Wunderground v.1.15,2013-08-17 03:00:00,
2013-08-16 23:05:00,84.3,84.3,29.95,East,97,5.0,8.0,100,0.00,,,0.03,Wunderground v.1.15,2013-08-17 03:05:00,
2013-08-16 23:15:00,84.3,84.3,29.94,East,88,5.0,7.0,100,0.00,,,0.03,Wunderground v.1.15,2013-08-17 03:15:00,
2013-08-16 23:20:00,84.3,84.3,29.94,East,97,4.0,4.0,100,0.00,,,0.03,Wunderground v.1.15,2013-08-17 03:20:00,
2013-08-16 23:30:00,84.3,84.3,29.94,ESE,114,5.0,5.0,100,0.00,,,0.03,Wunderground v.1.15,2013-08-17 03:30:00,
2013-08-16 23:35:00,84.3,84.3,29.94,ENE,72,5.0,7.0,100,0.00,,,0.03,Wunderground v.1.15,2013-08-17 03:35:00,
2013-08-16 23:45:00,84.3,84.3,29.93,ENE,72,4.0,8.0,100,0.00,,,0.03,Wunderground v.1.15,2013-08-17 03:45:00,
2013-08-16 23:55:00,84.1,84.1,29.93,ESE,119,4.0,6.0,100,0.00,,,0.03,Wunderground v.1.15,2013-08-17 03:55:00,